Location: Stigler
(35.2540°N, 95.1230°W)
Time: 22:32:10
(UTC-06:00)

Daily predictions for brighter satellites

Satellite Brightness Start Highest point End
(mag) Time Altitude Azimuth Time Altitude Azimuth Time Altitude Azimuth
Meteor 1-18 Rocket 4.4 18:29:15 10° N 18:34:37 47° ENE 18:39:59 10° SSE
Cosmos 1633 4.2 18:33:54 10° ESE 18:36:01 15° E 18:38:10 10° NE
Cosmos 44 3.5 18:33:07 10° NNW 18:37:16 39° NE 18:41:18 10° SE
SJ-6B 3.7 18:34:02 10° SE 18:37:32 28° ENE 18:40:58 10° NNE
Okean 2 Rocket 3.2 18:35:09 10° S 18:39:37 88° W 18:44:05 10° N
COSMO-SKYMED 1 3.1 18:35:37 10° N 18:39:55 65° WNW 18:44:13 10° SSW
Cosmos 1484 Rocket 3.7 18:36:22 10° S 18:40:16 55° W 18:44:10 10° NNW
ASTRO E2 3.6 18:38:42 10° W 18:42:33 43° S 18:46:23 10° ESE
Gbstr 26 Del rocket 4.2 18:42:01 10° S 18:44:53 20° SE 18:47:22 11° E
SL-16 R/B 2.5 18:41:42 10° N 18:47:10 47° ENE 18:52:36 10° SE
Meteor 1-20 Rocket 4.3 18:47:28 10° S 18:53:15 79° E 18:59:07 10° N
Cosmos 1818 3.5 18:52:04 10° SSW 18:57:27 69° ESE 19:02:53 10° NE
Cosmos 2151 Rocket 3.6 18:53:37 10° S 18:58:03 66° E 19:02:31 10° NNE
Cosmos 1745 Rocket 4.4 18:52:02 10° SSW 18:58:20 69° W 19:04:38 10° N
Cosmos 1340 3.7 18:56:36 10° NNE 18:59:43 24° ENE 19:02:50 10° SE
Cosmos 1536 4.3 18:58:24 10° SE 19:00:58 17° E 19:01:14 17° E
Cosmos 1461 3.5 18:58:07 10° N 19:01:47 33° NE 19:04:50 14° ESE
Cosmos 2292 Rocket 4.0 18:58:24 10° S 19:02:49 62° E 19:08:52 10° NNE
Cosmos 2322 Rocket 2.1 19:00:15 10° NNW 19:05:52 71° ENE 19:11:27 10° SSE
OAO 3 Copernicus 4.3 19:02:30 10° W 19:07:36 89° S 19:11:09 20° E
Okean 1 Rocket 3.9 19:03:49 10° SSE 19:07:38 28° E 19:11:29 10° NNE
FREGAT/IRIS 2.5 19:05:01 10° SSE 19:08:04 75° ENE 19:11:09 10° N
Okean 1 3.3 19:06:17 10° N 19:10:19 66° E 19:14:21 10° SSE
Helios 1A 4.5 19:11:47 18° ENE 19:11:47 18° ENE 19:14:12 10° NNE
CZ-2D R/B 4.5 19:12:51 22° ENE 19:12:51 22° ENE 19:15:37 10° NNE
SL-8 R/B 4.0 19:08:08 10° WNW 19:12:55 66° SW 19:17:41 10° SE
DELTA 2 R/B (1) 3.9 19:08:34 10° WNW 19:14:07 57° N 19:17:41 22° ENE
ATLAS 2A CENTAUR R/B 3.0 19:12:36 10° SW 19:14:52 23° SSE 19:18:32 13° ESE
Cosmos 407 Rocket 3.9 19:11:52 10° SSW 19:17:02 65° WNW 19:22:18 10° N
ERBS 4.4 19:14:04 10° WNW 19:17:08 29° SW 19:20:09 10° S
Cosmos 676 Rocket 3.9 19:12:46 10° SSW 19:17:57 86° E 19:23:10 10° NNE
ALOS 2.2 19:14:13 10° SSE 19:18:48 61° ENE 19:23:25 10° N
FENGYUN 3A 3.6 19:17:58 10° SSE 19:23:19 66° ENE 19:28:41 10° N
H-2A R/B 3.0 19:21:59 22° SE 19:23:50 39° ENE 19:27:19 10° N
COSMOS 2428 4.1 19:24:25 10° NNE 19:27:56 19° NE 19:27:56 19° NE
Meteor 2-4 Rocket 4.2 19:23:48 10° N 19:28:50 34° ENE 19:31:01 25° ESE
Meteor 1-11 Rocket 3.7 19:29:24 10° S 19:35:05 73° E 19:40:57 10° NNE
Cosmos 1238 Rocket 3.1 19:33:20 10° N 19:35:11 33° NNE 19:35:11 33° NNE
Helios 1B rocket 2.6 19:38:46 45° E 19:38:58 46° E 19:42:56 10° S
Cosmos 1140 Rocket 3.4 19:39:46 10° SSW 19:44:53 89° WNW 19:50:04 10° NNE
Cosmos 1536 Rocket 4.3 19:42:30 10° NNW 19:46:52 54° W 19:51:13 10° S
Cosmos 2219 3.3 19:44:46 10° S 19:50:16 49° ESE 19:51:31 42° ENE
Spot 2 Rocket 3.5 19:46:12 10° SSE 19:51:14 84° WSW 19:56:20 10° NNW
Resurs 01 Rocket 1.7 19:47:08 10° S 19:51:32 74° WSW 19:55:57 10° NNW
GPS 2-04 Rocket1 3.9 19:49:24 10° SW 19:52:48 32° S 19:52:48 32° S
Tiangong 2 2.6 19:52:51 10° NW 19:54:42 31° NW 19:54:42 31° NW
Cosmos 2360 Rocket 2.0 19:53:04 10° NNW 19:58:45 74° ENE 20:00:38 43° SE
Cosmos 1850 Rocket 3.9 19:54:15 10° S 19:59:30 77° ESE 20:02:31 26° NNE
Cosmos 614 Rocket 3.8 19:54:25 10° SSW 19:59:31 87° WNW 20:03:35 16° NNE
Cosmos 2219 Rocket 4.1 19:58:17 10° NNE 19:59:35 14° NNE 19:59:35 14° NNE
SL-08 ROCKET BODY 4.3 19:58:52 10° S 20:05:00 86° E 20:11:14 10° N
Cosmos 2327 Rocket 4.3 19:59:10 10° S 20:05:17 72° E 20:11:33 10° N
Cosmos 2181 Rocket 4.4 20:01:05 10° NNW 20:07:13 62° W 20:13:26 10° S
BREEZE-M DEB (TANK) 3.5 20:07:22 10° NW 20:09:29 40° N 20:09:29 40° N
Cosmos 2184 Rocket 4.1 20:17:38 10° S 20:23:58 77° W 20:30:17 10° N
Cosmos 2333 Rocket 4.3 20:19:28 10° N 20:20:34 14° NNE 20:20:34 14° NNE
Cosmos 2074 Rocket 4.1 20:18:09 10° SSW 20:24:22 73° W 20:30:39 10° N
COSMOS 2428 4.4 21:07:25 10° NNW 21:10:00 27° NW 21:10:00 27° NW
